^^

..:: Storico WU ::..




Lo storico viene creato da WUnderground con i dati che la stazione Meteomincio invia al loro server. L' aggiornamento viene fatto ogni 5 minuti circa, tuttavia possono esserci intervalli pił ampi a causa di errori, interruzioni di servizio o problemi nell' invio tramite FTP.


Storico stazione MeteoMincio
Giorno Sommario per Giugno 26, 2022 Unità:  Inglese    Metrico   Entrambi
Giorno Settimana Mese Anno
  Max: Min: Media:
Temperatura: 93.2 °F 64.4 °F 81 °F
Dew Point: 73.4 °F 60.8 °F 66 °F
Umidità: 85% 41% 63%
Velocità vento: 7.5mph 0mph 3.9mph
Raffica: 11.8mph - -
Direzione- - ESE
Pressione: 30 in 29.9 in -
Precipitazioni: 0 in    
 
 
Tabulato Dati per Giugno 26, 2022
Ora Temperatura Dew Point Pressione Direzione Velocità vento Raffica Umidità Intensità pioggia (oraria) Info solare Situazione
00:04 73.4 °F 62.6 °F 29.9 in SSW 3.1 mph 3.7 mph 68% 0 in 0.00 W/m2 unknown
00:09 73.4 °F 62.6 °F 29.9 in SSW 3.1 mph 3.7 mph 68% 0 in 0.00 W/m2 unknown
00:14 73.4 °F 62.6 °F 29.9 in SW 3.7 mph 5 mph 66% 0 in 0.00 W/m2 unknown
00:19 73.4 °F 62.6 °F 29.9 in SW 3.1 mph 5 mph 66% 0 in 0.00 W/m2 unknown
00:24 73.4 °F 62.6 °F 29.9 in SSW 3.7 mph 5 mph 66% 0 in 0.00 W/m2 unknown
00:29 73.4 °F 62.6 °F 29.9 in SSW 3.1 mph 5 mph 67% 0 in 0.00 W/m2 unknown
00:34 73.4 °F 62.6 °F 29.9 in SW 1.9 mph 3.7 mph 68% 0 in 0.00 W/m2 unknown
00:39 73.4 °F 62.6 °F 29.9 in SW 1.9 mph 3.1 mph 68% 0 in 0.00 W/m2 unknown
00:44 73.4 °F 62.6 °F 29.9 in SW 1.2 mph 1.9 mph 68% 0 in 0.00 W/m2 unknown
00:49 73.4 °F 62.6 °F 29.9 in SW 0.6 mph 3.7 mph 70% 0 in 0.00 W/m2 unknown
00:54 73.4 °F 62.6 °F 29.9 in SW 2.5 mph 3.7 mph 71% 0 in 0.00 W/m2 unknown
00:59 71.6 °F 62.6 °F 29.9 in SW 2.5 mph 3.7 mph 71% 0 in 0.00 W/m2 unknown
01:04 71.6 °F 62.6 °F 29.9 in SW 2.5 mph 3.7 mph 71% 0 in 0.00 W/m2 unknown
01:09 71.6 °F 60.8 °F 29.9 in SW 1.9 mph 3.7 mph 71% 0 in 0.00 W/m2 unknown
01:14 71.6 °F 60.8 °F 29.9 in SW 1.9 mph 3.7 mph 70% 0 in 0.00 W/m2 unknown
01:19 71.6 °F 60.8 °F 29.9 in SW 1.9 mph 3.7 mph 70% 0 in 0.00 W/m2 unknown
01:24 71.6 °F 60.8 °F 29.9 in SW 1.9 mph 3.7 mph 71% 0 in 0.00 W/m2 unknown
01:29 71.6 °F 60.8 °F 29.9 in SW 1.9 mph 3.1 mph 71% 0 in 0.00 W/m2 unknown
01:34 71.6 °F 60.8 °F 29.9 in SW 1.9 mph 3.7 mph 71% 0 in 0.00 W/m2 unknown
01:39 71.6 °F 60.8 °F 29.9 in SW 1.9 mph 3.7 mph 72% 0 in 0.00 W/m2 unknown
01:44 69.8 °F 60.8 °F 29.9 in SW 1.9 mph 3.7 mph 72% 0 in 0.00 W/m2 unknown
01:49 69.8 °F 60.8 °F 29.9 in SW 1.9 mph 3.7 mph 72% 0 in 0.00 W/m2 unknown
01:54 69.8 °F 60.8 °F 29.9 in SW 1.2 mph 3.7 mph 72% 0 in 0.00 W/m2 unknown
01:59 69.8 °F 60.8 °F 29.9 in SW 1.2 mph 3.1 mph 71% 0 in 0.00 W/m2 unknown
02:04 69.8 °F 60.8 °F 29.9 in SW 1.2 mph 2.5 mph 72% 0 in 0.00 W/m2 unknown
02:09 69.8 °F 60.8 °F 29.9 in SW 1.2 mph 1.9 mph 72% 0 in 0.00 W/m2 unknown
02:13 69.8 °F 60.8 °F 29.9 in Calm   1.2 mph 73% 0 in 0.00 W/m2 unknown
02:17 69.8 °F 60.8 °F 29.9 in Calm     73% 0 in 0.00 W/m2 unknown
02:24 69.8 °F 60.8 °F 29.9 in Calm     75% 0 in 0.00 W/m2 unknown
02:29 69.8 °F 60.8 °F 29.9 in SSW 0.6 mph 3.7 mph 76% 0 in 0.00 W/m2 unknown
02:34 69.8 °F 60.8 °F 29.9 in SSW 1.9 mph 3.7 mph 76% 0 in 0.00 W/m2 unknown
02:39 68 °F 60.8 °F 29.9 in SW 1.9 mph 3.7 mph 76% 0 in 0.00 W/m2 unknown
02:43 68 °F 60.8 °F 29.9 in SW 1.9 mph 3.7 mph 75% 0 in 0.00 W/m2 unknown
02:49 68 °F 60.8 °F 29.9 in SW 1.9 mph 3.7 mph 76% 0 in 0.00 W/m2 unknown
02:54 68 °F 60.8 °F 29.9 in SW 2.5 mph 3.7 mph 76% 0 in 0.00 W/m2 unknown
02:59 68 °F 60.8 °F 29.9 in SW 1.9 mph 3.7 mph 76% 0 in 0.00 W/m2 unknown
03:04 68 °F 60.8 °F 29.9 in WSW 2.5 mph 3.7 mph 76% 0 in 0.00 W/m2 unknown
03:09 68 °F 60.8 °F 29.9 in WSW 2.5 mph 3.7 mph 76% 0 in 0.00 W/m2 unknown
03:14 68 °F 60.8 °F 29.9 in West 1.9 mph 3.7 mph 76% 0 in 0.00 W/m2 unknown
03:19 68 °F 60.8 °F 29.9 in West 1.2 mph 3.1 mph 76% 0 in 0.00 W/m2 unknown
03:24 68 °F 60.8 °F 29.9 in WSW 1.2 mph 2.5 mph 77% 0 in 0.00 W/m2 unknown
03:28 68 °F 60.8 °F 29.9 in SW 1.2 mph 2.5 mph 77% 0 in 0.00 W/m2 unknown
03:33 68 °F 60.8 °F 29.9 in SW 1.2 mph 2.5 mph 77% 0 in 0.00 W/m2 unknown
03:39 68 °F 60.8 °F 29.9 in WSW 1.9 mph 3.7 mph 80% 0 in 0.00 W/m2 unknown
03:44 68 °F 60.8 °F 29.9 in WSW 2.5 mph 3.7 mph 81% 0 in 0.00 W/m2 unknown
03:49 68 °F 60.8 °F 29.9 in WSW 2.5 mph 3.7 mph 81% 0 in 0.00 W/m2 unknown
03:52 68 °F 60.8 °F 29.9 in WSW 2.5 mph 3.7 mph 81% 0 in 0.00 W/m2 unknown
03:57 68 °F 60.8 °F 29.9 in West 2.5 mph 3.7 mph 82% 0 in 0.00 W/m2 unknown
04:03 66.2 °F 60.8 °F 29.9 in WNW 1.9 mph 3.7 mph 82% 0 in 0.00 W/m2 unknown
04:09 68 °F 60.8 °F 29.9 in NW 1.9 mph 3.7 mph 81% 0 in 0.00 W/m2 unknown
04:13 68 °F 60.8 °F 29.9 in NW 1.2 mph 3.7 mph 81% 0 in 0.00 W/m2 unknown
04:17 68 °F 60.8 °F 29.9 in NW 0.6 mph 2.5 mph 81% 0 in 0.00 W/m2 unknown
04:24 68 °F 60.8 °F 29.9 in Calm     81% 0 in 0.00 W/m2 unknown
04:28 66.2 °F 60.8 °F 29.9 in Calm     82% 0 in 0.00 W/m2 unknown
04:34 66.2 °F 60.8 °F 29.9 in Calm     82% 0 in 0.00 W/m2 unknown
04:38 66.2 °F 60.8 °F 29.9 in Calm   1.9 mph 82% 0 in 0.00 W/m2 unknown
04:44 66.2 °F 60.8 °F 29.9 in Calm     82% 0 in 0.00 W/m2 unknown
04:48 66.2 °F 60.8 °F 29.9 in Calm     82% 0 in 0.00 W/m2 unknown
04:54 66.2 °F 60.8 °F 29.9 in Calm     83% 0 in 0.00 W/m2 unknown
04:58 66.2 °F 60.8 °F 29.9 in Calm   1.9 mph 83% 0 in 0.00 W/m2 unknown
05:02 66.2 °F 60.8 °F 29.9 in ENE 0.6 mph 2.5 mph 83% 0 in 0.00 W/m2 unknown
05:07 66.2 °F 60.8 °F 29.9 in ENE 0.6 mph 1.9 mph 83% 0 in 0.00 W/m2 unknown
05:14 66.2 °F 60.8 °F 29.9 in East 1.2 mph 2.5 mph 85% 0 in 0.00 W/m2 unknown
05:19 66.2 °F 60.8 °F 29.9 in ENE 1.2 mph 2.5 mph 85% 0 in 0.00 W/m2 unknown
05:24 64.4 °F 60.8 °F 29.9 in ENE 1.2 mph 2.5 mph 85% 0 in 0.00 W/m2 unknown
05:29 64.4 °F 60.8 °F 29.9 in ENE 1.2 mph 2.5 mph 85% 0 in 0.00 W/m2 unknown
05:34 66.2 °F 60.8 °F 29.9 in ENE 1.2 mph 2.5 mph 85% 0 in 0.00 W/m2 unknown
05:39 66.2 °F 60.8 °F 29.9 in ENE 1.2 mph 1.9 mph 85% 0 in 5.00 W/m2 unknown
05:44 66.2 °F 60.8 °F 29.9 in Calm   1.2 mph 85% 0 in 7.00 W/m2 unknown
05:49 66.2 °F 60.8 °F 29.9 in North 0.6 mph 2.5 mph 85% 0 in 11.00 W/m2 unknown
05:54 66.2 °F 60.8 °F 29.9 in NNE 1.9 mph 2.5 mph 85% 0 in 12.00 W/m2 unknown
05:59 66.2 °F 60.8 °F 29.9 in NNE 1.9 mph 2.5 mph 84% 0 in 16.00 W/m2 unknown
06:04 66.2 °F 60.8 °F 29.9 in NNE 1.2 mph 2.5 mph 83% 0 in 18.00 W/m2 unknown
06:09 66.2 °F 60.8 °F 29.9 in NNE 1.2 mph 3.7 mph 83% 0 in 19.00 W/m2 unknown
06:14 66.2 °F 60.8 °F 29.9 in NE 1.2 mph 3.7 mph 84% 0 in 21.00 W/m2 unknown
06:19 66.2 °F 62.6 °F 29.9 in NNE 1.2 mph 3.7 mph 84% 0 in 25.00 W/m2 unknown
06:24 66.2 °F 62.6 °F 29.9 in NNE 1.2 mph 3.7 mph 84% 0 in 25.00 W/m2 unknown
06:29 68 °F 62.6 °F 29.9 in NNE 1.9 mph 3.7 mph 84% 0 in 37.00 W/m2 unknown
06:34 68 °F 62.6 °F 29.9 in NNE 1.9 mph 3.7 mph 84% 0 in 46.00 W/m2 unknown
06:39 69.8 °F 62.6 °F 29.9 in NNE 2.5 mph 3.7 mph 83% 0 in 54.00 W/m2 unknown
06:44 69.8 °F 62.6 °F 29.9 in NNE 1.9 mph 3.7 mph 82% 0 in 63.00 W/m2 unknown
06:49 69.8 °F 62.6 °F 29.9 in NE 1.9 mph 3.7 mph 81% 0 in 72.00 W/m2 unknown
06:54 69.8 °F 62.6 °F 29.9 in NE 1.9 mph 3.7 mph 79% 0 in 84.00 W/m2 unknown
06:59 69.8 °F 62.6 °F 29.9 in NE 2.5 mph 3.7 mph 78% 0 in 97.00 W/m2 unknown
07:04 71.6 °F 64.4 °F 29.9 in NE 3.1 mph 5 mph 78% 0 in 109.00 W/m2 unknown
07:09 71.6 °F 64.4 °F 29.9 in NE 3.7 mph 5 mph 78% 0 in 121.00 W/m2 unknown
07:13 71.6 °F 64.4 °F 29.9 in NE 3.7 mph 5 mph 78% 0 in 130.00 W/m2 unknown
07:19 71.6 °F 64.4 °F 29.9 in NE 3.7 mph 5 mph 78% 0 in 144.00 W/m2 unknown
07:24 71.6 °F 64.4 °F 29.9 in NE 3.7 mph 5 mph 78% 0 in 163.00 W/m2 unknown
07:29 73.4 °F 64.4 °F 29.9 in NE 3.7 mph 5 mph 77% 0 in 190.00 W/m2 unknown
07:34 73.4 °F 64.4 °F 29.9 in NE 3.1 mph 5 mph 77% 0 in 193.00 W/m2 unknown
07:39 73.4 °F 66.2 °F 29.9 in NE 3.1 mph 5 mph 76% 0 in 193.00 W/m2 unknown
07:44 73.4 °F 64.4 °F 30 in NE 3.1 mph 5 mph 76% 0 in 206.00 W/m2 unknown
07:49 73.4 °F 66.2 °F 30 in ENE 3.1 mph 6.2 mph 77% 0 in 223.00 W/m2 unknown
07:54 75.2 °F 66.2 °F 30 in ENE 3.7 mph 6.2 mph 77% 0 in 237.00 W/m2 unknown
07:59 75.2 °F 66.2 °F 30 in ESE 3.7 mph 5.6 mph 76% 0 in 257.00 W/m2 unknown
08:04 75.2 °F 66.2 °F 30 in ENE 4.3 mph 8.1 mph 76% 0 in 276.00 W/m2 unknown
08:09 75.2 °F 68 °F 30 in NE 5.6 mph 8.1 mph 77% 0 in 304.00 W/m2 unknown
08:14 75.2 °F 68 °F 30 in East 5 mph 8.1 mph 76% 0 in 315.00 W/m2 unknown
08:19 75.2 °F 68 °F 30 in East 5 mph 8.1 mph 77% 0 in 320.00 W/m2 unknown
08:24 77 °F 68 °F 30 in ENE 5.6 mph 9.3 mph 77% 0 in 334.00 W/m2 unknown
08:29 77 °F 69.8 °F 30 in NE 5.6 mph 9.3 mph 78% 0 in 341.00 W/m2 unknown
08:34 77 °F 69.8 °F 30 in ENE 6.2 mph 8.7 mph 77% 0 in 343.00 W/m2 unknown
08:39 77 °F 69.8 °F 30 in ENE 6.8 mph 9.3 mph 77% 0 in 359.00 W/m2 unknown
08:44 78.8 °F 69.8 °F 30 in ENE 7.5 mph 9.3 mph 77% 0 in 369.00 W/m2 unknown
08:49 78.8 °F 69.8 °F 30 in ENE 6.8 mph 8.7 mph 76% 0 in 380.00 W/m2 unknown
08:54 78.8 °F 69.8 °F 30 in ENE 6.2 mph 9.3 mph 76% 0 in 394.00 W/m2 unknown
08:59 78.8 °F 69.8 °F 30 in ENE 6.2 mph 10.6 mph 75% 0 in 408.00 W/m2 unknown
09:04 78.8 °F 71.6 °F 30 in East 6.2 mph 10.6 mph 76% 0 in 417.00 W/m2 unknown
09:09 78.8 °F 71.6 °F 30 in ENE 6.2 mph 10.6 mph 76% 0 in 431.00 W/m2 unknown
09:14 78.8 °F 69.8 °F 30 in ENE 7.5 mph 11.8 mph 75% 0 in 445.00 W/m2 unknown
09:19 80.6 °F 71.6 °F 30 in ENE 6.8 mph 11.8 mph 75% 0 in 455.00 W/m2 unknown
09:24 80.6 °F 71.6 °F 30 in ENE 6.2 mph 11.8 mph 74% 0 in 468.00 W/m2 unknown
09:29 80.6 °F 71.6 °F 30 in East 6.8 mph 11.8 mph 74% 0 in 489.00 W/m2 unknown
09:34 80.6 °F 71.6 °F 30 in East 6.8 mph 11.8 mph 74% 0 in 501.00 W/m2 unknown
09:39 80.6 °F 71.6 °F 30 in ESE 6.8 mph 9.3 mph 73% 0 in 508.00 W/m2 unknown
09:44 80.6 °F 71.6 °F 30 in East 6.8 mph 10.6 mph 73% 0 in 517.00 W/m2 unknown
09:49 80.6 °F 71.6 °F 30 in ENE 6.2 mph 10.6 mph 73% 0 in 534.00 W/m2 unknown
09:54 82.4 °F 71.6 °F 30 in ENE 6.2 mph 10.6 mph 73% 0 in 548.00 W/m2 unknown
09:59 82.4 °F 71.6 °F 30 in East 6.2 mph 9.9 mph 73% 0 in 564.00 W/m2 unknown
10:04 82.4 °F 71.6 °F 30 in ESE 6.8 mph 10.6 mph 72% 0 in 580.00 W/m2 unknown
10:09 82.4 °F 71.6 °F 30 in ESE 6.2 mph 11.2 mph 72% 0 in 589.00 W/m2 unknown
10:14 82.4 °F 71.6 °F 30 in ESE 6.8 mph 11.8 mph 71% 0 in 599.00 W/m2 unknown
10:19 82.4 °F 71.6 °F 30 in East 6.8 mph 11.8 mph 71% 0 in 617.00 W/m2 unknown
10:24 82.4 °F 71.6 °F 30 in ESE 6.8 mph 8.7 mph 70% 0 in 615.00 W/m2 unknown
10:29 84.2 °F 73.4 °F 30 in East 6.8 mph 8.7 mph 70% 0 in 619.00 W/m2 unknown
10:30 84.2 °F 73.4 °F 30 in ENE 6.2 mph 8.1 mph 70% 0 in 619.00 W/m2 unknown
10:39 84.2 °F 71.6 °F 30 in East 5 mph 8.7 mph 70% 0 in 661.00 W/m2 unknown
10:44 84.2 °F 71.6 °F 30 in ESE 5.6 mph 9.3 mph 68% 0 in 661.00 W/m2 unknown
10:49 84.2 °F 71.6 °F 30 in ESE 6.2 mph 10.6 mph 67% 0 in 679.00 W/m2 unknown
10:54 84.2 °F 71.6 °F 30 in East 6.8 mph 10.6 mph 67% 0 in 689.00 W/m2 unknown
10:59 84.2 °F 71.6 °F 30 in East 7.5 mph 9.9 mph 66% 0 in 701.00 W/m2 unknown
11:04 84.2 °F 71.6 °F 30 in East 6.8 mph 9.3 mph 66% 0 in 703.00 W/m2 unknown
11:09 84.2 °F 69.8 °F 30 in ESE 5 mph 9.3 mph 64% 0 in 712.00 W/m2 unknown
11:14 84.2 °F 71.6 °F 30 in East 5.6 mph 9.3 mph 64% 0 in 721.00 W/m2 unknown
11:19 84.2 °F 71.6 °F 30 in East 5.6 mph 9.3 mph 64% 0 in 729.00 W/m2 unknown
11:24 86 °F 71.6 °F 30 in ESE 6.2 mph 11.2 mph 64% 0 in 737.00 W/m2 unknown
11:29 86 °F 71.6 °F 30 in East 6.2 mph 11.2 mph 65% 0 in 749.00 W/m2 unknown
11:34 86 °F 71.6 °F 30 in East 6.2 mph 9.9 mph 63% 0 in 761.00 W/m2 unknown
11:39 86 °F 69.8 °F 30 in ESE 6.2 mph 9.3 mph 61% 0 in 766.00 W/m2 unknown
11:44 86 °F 69.8 °F 30 in East 6.2 mph 9.3 mph 61% 0 in 772.00 W/m2 unknown
11:49 86 °F 71.6 °F 30 in East 6.8 mph 9.3 mph 62% 0 in 779.00 W/m2 unknown
11:54 86 °F 71.6 °F 30 in East 6.8 mph 9.3 mph 61% 0 in 784.00 W/m2 unknown
11:59 86 °F 71.6 °F 30 in ENE 6.8 mph 9.3 mph 62% 0 in 791.00 W/m2 unknown
12:04 87.8 °F 71.6 °F 30 in ESE 6.8 mph 9.3 mph 61% 0 in 795.00 W/m2 unknown
12:09 87.8 °F 69.8 °F 30 in ENE 6.8 mph 9.3 mph 59% 0 in 803.00 W/m2 unknown
12:14 87.8 °F 71.6 °F 30 in NE 5.6 mph 8.1 mph 59% 0 in 805.00 W/m2 unknown
12:19 87.8 °F 71.6 °F 30 in ESE 5 mph 8.1 mph 59% 0 in 810.00 W/m2 unknown
12:24 87.8 °F 69.8 °F 30 in East 5 mph 8.1 mph 58% 0 in 819.00 W/m2 unknown
12:29 87.8 °F 71.6 °F 29.9 in ENE 5 mph 8.1 mph 57% 0 in 821.00 W/m2 unknown
12:34 87.8 °F 71.6 °F 29.9 in ENE 5 mph 8.1 mph 58% 0 in 826.00 W/m2 unknown
12:39 87.8 °F 71.6 °F 29.9 in ENE 5 mph 8.1 mph 59% 0 in 828.00 W/m2 unknown
12:44 87.8 °F 71.6 °F 29.9 in ENE 5 mph 8.1 mph 58% 0 in 833.00 W/m2 unknown
12:49 89.6 °F 71.6 °F 29.9 in NNE 5 mph 6.8 mph 56% 0 in 837.00 W/m2 unknown
12:54 89.6 °F 69.8 °F 29.9 in NE 5 mph 9.3 mph 54% 0 in 842.00 W/m2 unknown
12:59 89.6 °F 69.8 °F 29.9 in NE 5 mph 9.3 mph 54% 0 in 847.00 W/m2 unknown
13:04 89.6 °F 69.8 °F 29.9 in NNE 5 mph 9.3 mph 52% 0 in 849.00 W/m2 unknown
13:09 89.6 °F 68 °F 29.9 in NE 4.3 mph 8.1 mph 50% 0 in 853.00 W/m2 unknown
13:14 89.6 °F 68 °F 29.9 in ENE 5 mph 6.8 mph 48% 0 in 854.00 W/m2 unknown
13:17 89.6 °F 68 °F 29.9 in ESE 5 mph 6.8 mph 48% 0 in 854.00 W/m2 unknown
13:21 89.6 °F 66.2 °F 29.9 in ESE 5 mph 6.8 mph 48% 0 in 856.00 W/m2 unknown
13:29 89.6 °F 66.2 °F 29.9 in ENE 5 mph 6.8 mph 47% 0 in 858.00 W/m2 unknown
13:34 91.4 °F 68 °F 29.9 in North 3.1 mph 6.8 mph 47% 0 in 856.00 W/m2 unknown
13:39 91.4 °F 66.2 °F 29.9 in WNW 1.9 mph 3.7 mph 45% 0 in 856.00 W/m2 unknown
13:44 91.4 °F 66.2 °F 29.9 in SE 4.3 mph 9.3 mph 47% 0 in 853.00 W/m2 unknown
13:49 89.6 °F 68 °F 29.9 in South 4.3 mph 9.3 mph 50% 0 in 849.00 W/m2 unknown
13:54 89.6 °F 68 °F 29.9 in ESE 4.3 mph 9.3 mph 49% 0 in 847.00 W/m2 unknown
13:59 89.6 °F 68 °F 29.9 in ENE 3.7 mph 8.7 mph 48% 0 in 846.00 W/m2 unknown
14:04 91.4 °F 68 °F 29.9 in ESE 5 mph 6.8 mph 48% 0 in 846.00 W/m2 unknown
14:09 89.6 °F 68 °F 29.9 in NE 5 mph 6.8 mph 48% 0 in 840.00 W/m2 unknown
14:14 91.4 °F 68 °F 29.9 in East 5 mph 6.2 mph 50% 0 in 838.00 W/m2 unknown
14:19 91.4 °F 68 °F 29.9 in ENE 4.3 mph 6.8 mph 48% 0 in 835.00 W/m2 unknown
14:24 91.4 °F 69.8 °F 29.9 in NNW 4.3 mph 6.8 mph 50% 0 in 833.00 W/m2 unknown
14:28 91.4 °F 69.8 °F 29.9 in North 3.1 mph 6.8 mph 49% 0 in 833.00 W/m2 unknown
14:34 91.4 °F 69.8 °F 29.9 in NE 5 mph 6.8 mph 48% 0 in 828.00 W/m2 unknown
14:39 91.4 °F 69.8 °F 29.9 in SE 5.6 mph 6.8 mph 48% 0 in 817.00 W/m2 unknown
14:44 91.4 °F 69.8 °F 29.9 in ESE 5 mph 6.8 mph 48% 0 in 816.00 W/m2 unknown
14:49 91.4 °F 69.8 °F 29.9 in East 5 mph 6.8 mph 49% 0 in 812.00 W/m2 unknown
14:54 91.4 °F 69.8 °F 29.9 in ENE 4.3 mph 6.8 mph 48% 0 in 810.00 W/m2 unknown
14:59 91.4 °F 69.8 °F 29.9 in ENE 5 mph 6.8 mph 49% 0 in 803.00 W/m2 unknown
15:04 91.4 °F 69.8 °F 29.9 in NNE 5 mph 8.1 mph 49% 0 in 802.00 W/m2 unknown
15:09 91.4 °F 69.8 °F 29.9 in East 5 mph 8.1 mph 48% 0 in 788.00 W/m2 unknown
15:14 93.2 °F 71.6 °F 29.9 in NNE 5 mph 8.1 mph 52% 0 in 782.00 W/m2 unknown
15:19 93.2 °F 69.8 °F 29.9 in NE 3.1 mph 9.9 mph 48% 0 in 777.00 W/m2 unknown
15:24 93.2 °F 69.8 °F 29.9 in NE 3.7 mph 10.6 mph 48% 0 in 772.00 W/m2 unknown
15:29 93.2 °F 69.8 °F 29.9 in NNE 3.1 mph 10.6 mph 48% 0 in 759.00 W/m2 unknown
15:34 93.2 °F 69.8 °F 29.9 in NNE 3.7 mph 6.8 mph 48% 0 in 752.00 W/m2 unknown
15:39 93.2 °F 69.8 °F 29.9 in ENE 6.8 mph 9.3 mph 48% 0 in 752.00 W/m2 unknown
15:44 93.2 °F 68 °F 29.9 in ENE 6.8 mph 9.3 mph 45% 0 in 738.00 W/m2 unknown
15:49 93.2 °F 68 °F 29.9 in ENE 6.8 mph 9.3 mph 45% 0 in 728.00 W/m2 unknown
15:54 93.2 °F 69.8 °F 29.9 in ENE 6.2 mph 8.7 mph 46% 0 in 715.00 W/m2 unknown
15:59 93.2 °F 69.8 °F 29.9 in ENE 5.6 mph 8.1 mph 46% 0 in 708.00 W/m2 unknown
16:04 93.2 °F 68 °F 29.9 in ENE 5.6 mph 8.1 mph 46% 0 in 703.00 W/m2 unknown
16:09 93.2 °F 68 °F 29.9 in ENE 5 mph 8.7 mph 45% 0 in 696.00 W/m2 unknown
16:14 93.2 °F 68 °F 29.9 in East 6.8 mph 9.3 mph 44% 0 in 687.00 W/m2 unknown
16:19 93.2 °F 66.2 °F 29.9 in East 6.8 mph 9.3 mph 42% 0 in 679.00 W/m2 unknown
16:24 93.2 °F 66.2 °F 29.9 in ENE 6.8 mph 9.3 mph 43% 0 in 664.00 W/m2 unknown
16:29 93.2 °F 68 °F 29.9 in ESE 6.2 mph 8.7 mph 44% 0 in 654.00 W/m2 unknown
16:34 93.2 °F 66.2 °F 29.9 in ENE 5 mph 8.7 mph 43% 0 in 643.00 W/m2 unknown
16:39 93.2 °F 69.8 °F 29.9 in NNE 3.1 mph 8.1 mph 46% 0 in 631.00 W/m2 unknown
16:44 93.2 °F 69.8 °F 29.9 in NNE 4.3 mph 5 mph 46% 0 in 621.00 W/m2 unknown
16:49 93.2 °F 68 °F 29.9 in NE 4.3 mph 6.8 mph 44% 0 in 608.00 W/m2 unknown
16:54 93.2 °F 68 °F 29.9 in East 5 mph 6.8 mph 43% 0 in 598.00 W/m2 unknown
16:59 93.2 °F 66.2 °F 29.9 in East 5 mph 6.8 mph 42% 0 in 592.00 W/m2 unknown
17:04 93.2 °F 66.2 °F 29.9 in ENE 5 mph 8.1 mph 41% 0 in 596.00 W/m2 unknown
17:09 93.2 °F 66.2 °F 29.9 in ESE 5.6 mph 8.1 mph 41% 0 in 585.00 W/m2 unknown
17:14 93.2 °F 66.2 °F 29.9 in ESE 5 mph 8.1 mph 41% 0 in 557.00 W/m2 unknown
17:19 93.2 °F 66.2 °F 29.9 in ESE 5 mph 8.1 mph 41% 0 in 541.00 W/m2 unknown
17:24 93.2 °F 66.2 °F 29.9 in NE 4.3 mph 8.1 mph 41% 0 in 524.00 W/m2 unknown
17:29 93.2 °F 66.2 °F 29.9 in NE 5.6 mph 8.1 mph 42% 0 in 513.00 W/m2 unknown
17:34 93.2 °F 66.2 °F 29.9 in NE 5 mph 8.1 mph 42% 0 in 501.00 W/m2 unknown
17:38 93.2 °F 68 °F 29.9 in NE 3.1 mph 6.8 mph 43% 0 in 490.00 W/m2 unknown
17:44 93.2 °F 66.2 °F 29.9 in NE 3.7 mph 8.1 mph 42% 0 in 471.00 W/m2 unknown
17:49 93.2 °F 66.2 °F 29.9 in East 3.7 mph 6.8 mph 42% 0 in 475.00 W/m2 unknown
17:54 93.2 °F 68 °F 29.9 in ENE 1.9 mph 6.8 mph 44% 0 in 469.00 W/m2 unknown
17:59 93.2 °F 66.2 °F 29.9 in NE 3.7 mph 5 mph 43% 0 in 466.00 W/m2 unknown
18:04 93.2 °F 68 °F 29.9 in NE 3.7 mph 5 mph 45% 0 in 401.00 W/m2 unknown
18:09 91.4 °F 68 °F 29.9 in NNE 3.1 mph 5 mph 45% 0 in 476.00 W/m2 unknown
18:14 93.2 °F 68 °F 29.9 in NNE 2.5 mph 3.7 mph 45% 0 in 480.00 W/m2 unknown
18:19 93.2 °F 68 °F 29.9 in ENE 1.9 mph 3.7 mph 45% 0 in 468.00 W/m2 unknown
18:24 93.2 °F 68 °F 29.9 in NE 3.1 mph 5 mph 44% 0 in 390.00 W/m2 unknown
18:29 93.2 °F 68 °F 29.9 in East 3.1 mph 5 mph 44% 0 in 162.00 W/m2 unknown
18:33 91.4 °F 66.2 °F 29.9 in ENE 2.5 mph 5 mph 44% 0 in 162.00 W/m2 unknown
18:37 91.4 °F 66.2 °F 29.9 in ENE 2.5 mph 5 mph 44% 0 in 149.00 W/m2 unknown
18:44 91.4 °F 68 °F 29.9 in NE 2.5 mph 5 mph 46% 0 in 158.00 W/m2 unknown
18:49 91.4 °F 66.2 °F 29.9 in NE 3.1 mph 5 mph 45% 0 in 123.00 W/m2 unknown
18:54 91.4 °F 68 °F 29.9 in NE 3.1 mph 5 mph 46% 0 in 93.00 W/m2 unknown
18:59 91.4 °F 68 °F 29.9 in NE 3.1 mph 3.7 mph 46% 0 in 86.00 W/m2 unknown
19:04 91.4 °F 68 °F 29.9 in NNE 3.1 mph 3.7 mph 49% 0 in 98.00 W/m2 unknown
19:09 91.4 °F 69.8 °F 29.9 in NNE 3.1 mph 5 mph 50% 0 in 98.00 W/m2 unknown
19:12 89.6 °F 68 °F 29.9 in North 3.1 mph 5 mph 49% 0 in 97.00 W/m2 unknown
19:19 89.6 °F 68 °F 29.9 in NE 3.7 mph 5 mph 49% 0 in 102.00 W/m2 unknown
19:24 89.6 °F 68 °F 29.9 in ENE 3.7 mph 5 mph 50% 0 in 86.00 W/m2 unknown
19:29 89.6 °F 68 °F 29.9 in NE 3.7 mph 5 mph 50% 0 in 67.00 W/m2 unknown
19:34 89.6 °F 68 °F 29.9 in NE 3.7 mph 5 mph 50% 0 in 74.00 W/m2 unknown
19:39 89.6 °F 68 °F 29.9 in ENE 3.7 mph 5 mph 51% 0 in 104.00 W/m2 unknown
19:44 89.6 °F 71.6 °F 29.9 in ENE 3.1 mph 5 mph 55% 0 in 123.00 W/m2 unknown
19:49 89.6 °F 71.6 °F 29.9 in ENE 3.1 mph 5 mph 56% 0 in 69.00 W/m2 unknown
19:54 89.6 °F 69.8 °F 29.9 in ENE 3.1 mph 3.7 mph 56% 0 in 58.00 W/m2 unknown
19:59 87.8 °F 69.8 °F 29.9 in ENE 3.1 mph 5 mph 56% 0 in 58.00 W/m2 unknown
20:04 87.8 °F 69.8 °F 29.9 in ENE 3.7 mph 5 mph 56% 0 in 54.00 W/m2 unknown
20:09 87.8 °F 69.8 °F 29.9 in ENE 3.7 mph 6.2 mph 55% 0 in 42.00 W/m2 unknown
20:14 87.8 °F 69.8 °F 29.9 in ENE 3.7 mph 6.2 mph 56% 0 in 37.00 W/m2 unknown
20:19 87.8 °F 69.8 °F 29.9 in East 3.7 mph 6.2 mph 56% 0 in 32.00 W/m2 unknown
20:24 87.8 °F 69.8 °F 29.9 in East 4.3 mph 6.8 mph 57% 0 in 23.00 W/m2 unknown
20:29 86 °F 69.8 °F 29.9 in ESE 5 mph 6.8 mph 57% 0 in 21.00 W/m2 unknown
20:34 86 °F 68 °F 29.9 in ESE 5 mph 6.8 mph 56% 0 in 18.00 W/m2 unknown
20:39 86 °F 68 °F 29.9 in East 5 mph 6.8 mph 55% 0 in 14.00 W/m2 unknown
20:44 86 °F 68 °F 29.9 in ESE 5.6 mph 8.1 mph 55% 0 in 12.00 W/m2 unknown
20:48 86 °F 68 °F 29.9 in ESE 5.6 mph 8.1 mph 55% 0 in 9.00 W/m2 unknown
20:54 84.2 °F 66.2 °F 29.9 in ESE 6.2 mph 8.1 mph 55% 0 in 5.00 W/m2 unknown
20:59 84.2 °F 66.2 °F 29.9 in East 5 mph 6.8 mph 55% 0 in 0.00 W/m2 unknown
21:04 84.2 °F 66.2 °F 29.9 in ESE 4.3 mph 5 mph 56% 0 in 0.00 W/m2 unknown
21:09 84.2 °F 66.2 °F 29.9 in ESE 5 mph 9.9 mph 56% 0 in 0.00 W/m2 unknown
21:14 84.2 °F 66.2 °F 29.9 in East 6.2 mph 10.6 mph 56% 0 in 0.00 W/m2 unknown
21:19 84.2 °F 66.2 °F 29.9 in East 6.2 mph 10.6 mph 56% 0 in 0.00 W/m2 unknown
21:24 84.2 °F 66.2 °F 29.9 in ESE 6.2 mph 9.9 mph 56% 0 in 0.00 W/m2 unknown
21:29 84.2 °F 66.2 °F 29.9 in ESE 3.1 mph 6.8 mph 57% 0 in 0.00 W/m2 unknown
21:34 82.4 °F 66.2 °F 29.9 in SE 3.7 mph 6.8 mph 57% 0 in 0.00 W/m2 unknown
21:39 82.4 °F 66.2 °F 29.9 in ESE 5.6 mph 10.6 mph 56% 0 in 0.00 W/m2 unknown
21:44 84.2 °F 64.4 °F 29.9 in SE 6.2 mph 10.6 mph 54% 0 in 0.00 W/m2 unknown
21:49 82.4 °F 64.4 °F 29.9 in SE 6.2 mph 10.6 mph 52% 0 in 0.00 W/m2 unknown
21:54 82.4 °F 62.6 °F 29.9 in SE 6.2 mph 6.8 mph 51% 0 in 0.00 W/m2 unknown
21:59 82.4 °F 62.6 °F 29.9 in ESE 5 mph 6.8 mph 50% 0 in 0.00 W/m2 unknown
22:04 82.4 °F 62.6 °F 29.9 in East 3.7 mph 6.8 mph 51% 0 in 0.00 W/m2 unknown
22:09 82.4 °F 62.6 °F 29.9 in ESE 4.3 mph 6.8 mph 52% 0 in 0.00 W/m2 unknown
22:14 82.4 °F 62.6 °F 29.9 in ESE 5 mph 6.8 mph 52% 0 in 0.00 W/m2 unknown
22:19 82.4 °F 62.6 °F 29.9 in ESE 3.1 mph 5 mph 53% 0 in 0.00 W/m2 unknown
22:24 82.4 °F 62.6 °F 29.9 in ESE 3.7 mph 6.8 mph 52% 0 in 0.00 W/m2 unknown
22:29 80.6 °F 62.6 °F 29.9 in East 4.3 mph 6.8 mph 52% 0 in 0.00 W/m2 unknown
22:34 80.6 °F 62.6 °F 29.9 in ESE 4.3 mph 8.7 mph 52% 0 in 0.00 W/m2 unknown
22:39 80.6 °F 62.6 °F 29.9 in ESE 5 mph 8.7 mph 53% 0 in 0.00 W/m2 unknown
22:44 80.6 °F 62.6 °F 29.9 in East 3.1 mph 6.8 mph 54% 0 in 0.00 W/m2 unknown
22:49 80.6 °F 62.6 °F 29.9 in East 2.5 mph 5 mph 54% 0 in 0.00 W/m2 unknown
22:54 80.6 °F 62.6 °F 29.9 in ESE 2.5 mph 5 mph 54% 0 in 0.00 W/m2 unknown
22:59 80.6 °F 62.6 °F 29.9 in East 3.1 mph 5 mph 55% 0 in 0.00 W/m2 unknown
23:04 80.6 °F 62.6 °F 29.9 in East 3.1 mph 5 mph 56% 0 in 0.00 W/m2 unknown
23:09 78.8 °F 62.6 °F 29.9 in East 3.1 mph 6.2 mph 56% 0 in 0.00 W/m2 unknown
23:14 78.8 °F 62.6 °F 29.9 in East 3.1 mph 6.2 mph 56% 0 in 0.00 W/m2 unknown
23:18 78.8 °F 62.6 °F 29.9 in ESE 3.7 mph 6.2 mph 57% 0 in 0.00 W/m2 unknown
23:24 78.8 °F 62.6 °F 29.9 in East 3.7 mph 6.2 mph 57% 0 in 0.00 W/m2 unknown
23:29 78.8 °F 62.6 °F 29.9 in ENE 3.7 mph 5.6 mph 57% 0 in 0.00 W/m2 unknown
23:34 78.8 °F 62.6 °F 29.9 in ENE 3.7 mph 6.2 mph 57% 0 in 0.00 W/m2 unknown
23:38 78.8 °F 62.6 °F 29.9 in East 3.7 mph 6.2 mph 58% 0 in 0.00 W/m2 unknown
23:44 78.8 °F 62.6 °F 29.9 in ENE 3.1 mph 5 mph 58% 0 in 0.00 W/m2 unknown
23:49 78.8 °F 62.6 °F 29.9 in ENE 4.3 mph 8.1 mph 58% 0 in 0.00 W/m2 unknown
23:54 78.8 °F 62.6 °F 29.9 in NE 4.3 mph 8.1 mph 59% 0 in 0.00 W/m2 unknown
23:59 78.8 °F 64.4 °F 29.9 in ENE 5 mph 8.1 mph 60% 0 in 0.00 W/m2 unknown
Stazione Meteorologica MeteoMincio Rivalta s/M (MN)
Con i complimenti di Weather Underground - 4 mb



METEO PILLOLE
La temperatura più alta
Death Valley -54m slm (Stati Uniti d'America)
Il 10 luglio 1913 la colonnina di mercurio raggiunse +56.7°C.
Share

Non seguire questo link o sarai bannato dal sito!